This is the latest recevied weather packets stored in our database for station/object W4DHW-4. If no packets are shown the sender has not sent any weather packets the latest 10 day(s).
| Time | Temp. | Humidity | Pressure | Rain* | Wind** | Luminosity | Snow |
|---|---|---|---|---|---|---|---|
| 1777585355 | 17.22° C | 38% | 1011.4 hPa | 0 mm | - | 198 W/m² | - |
| 1777585050 | 17.78° C | 37% | 1011.2 hPa | 0 mm | - | 346 W/m² | - |
| 1777584746 | 17.78° C | 37% | 1011.1 hPa | 0 mm | - | 368 W/m² | - |
| 1777584444 | 17.78° C | 37% | 1011.2 hPa | 0 mm | - | 159 W/m² | - |
| 1777584140 | 18.33° C | 36% | 1011.4 hPa | 0 mm | - | 77 W/m² | - |
| 1777583840 | 18.33° C | 37% | 1010.9 hPa | 0 mm | - | 65 W/m² | - |
| 1777583536 | 18.33° C | 37% | 1011.1 hPa | 0 mm | - | 66 W/m² | - |
| 1777583235 | 18.33° C | 36% | 1010.8 hPa | 0 mm | - | 65 W/m² | - |
| 1777582929 | 18.33° C | 35% | 1010.8 hPa | 0 mm | - | 62 W/m² | - |
| 1777582628 | 18.33° C | 35% | 1010.9 hPa | 0 mm | - | 68 W/m² | - |
| 1777582322 | 18.89° C | 34% | 1011 hPa | 0 mm | - | 95 W/m² | - |
| 1777582021 | 18.33° C | 36% | 1010.9 hPa | 0 mm | - | 489 W/m² | - |
| 1777581715 | 18.33° C | 36% | 1010.8 hPa | 0 mm | - | 513 W/m² | - |
| 1777581415 | 18.33° C | 35% | 1010.8 hPa | 0 mm | - | 390 W/m² | - |
| 1777581114 | 18.33° C | 36% | 1010.7 hPa | 0 mm | - | 65 W/m² | - |
| 1777580809 | 18.33° C | 36% | 1010.7 hPa | 0 mm | - | 66 W/m² | - |
| 1777580505 | 18.33° C | 36% | 1010.9 hPa | 0 mm | - | 66 W/m² | - |
| 1777580200 | 17.78° C | 36% | 1010.8 hPa | 0 mm | - | 69 W/m² | - |
| 1777579898 | 18.33° C | 37% | 1011 hPa | 0 mm | - | 69 W/m² | - |
| 1777579592 | 17.78° C | 37% | 1010.9 hPa | 0 mm | - | 70 W/m² | - |
| 1777579292 | 18.33° C | 36% | 1010.9 hPa | 0 mm | - | 82 W/m² | - |
| 1777578988 | 18.33° C | 37% | 1010.7 hPa | 0 mm | - | 97 W/m² | - |
| 1777578683 | 18.33° C | 36% | 1011 hPa | 0 mm | - | 642 W/m² | - |
| 1777578382 | 18.33° C | 36% | 1010.9 hPa | 0 mm | - | 681 W/m² | - |
| 1777578078 | 18.33° C | 38% | 1010.8 hPa | 0 mm | - | 685 W/m² | - |
* Rain latest hour (hover to see other rain measurements)
** Current wind speed in m/s (hover to see current wind gust speed)